Minneapolis Flying Cloud, MN

4:28 AM CDT on April 27, 2017 (GMT -0500)
Flying Cloud

Weather History for KFCM - July, 2012

Change the Weather History Date:

Friday, July 13, 2012

  Actual Average Record
Temperature  
Mean Temperature 79 °F -  
Max Temperature 91 °F 81 °F 91 °F (1998)
Min Temperature 69 °F 62 °F 54 °F (2007)
Cooling Degree Days 14    
Growing Degree Days 29 (Base 50)    
Moisture  
Dew Point 65 °F    
Average Humidity 69    
Maximum Humidity 84    
Minimum Humidity 46    
Precipitation  
Precipitation 0.02 in - - ()
Sea Level Pressure  
Sea Level Pressure 29.94 in    
Wind  
Wind Speed 8 mph (SE)    
Max Wind Speed 16 mph    
Max Gust Speed 22 mph    
Visibility 10 miles    
Events Rain , Thunderstorm    
Averages and records for this station are not official NWS values.
T = Trace of Precipitation, MM = Missing Value Source: NWS Daily Summary

Daily Weather History Graph

Daily Weather History Graph

Search for Another Location

Airport or City:

Trip Planner

Search our weather history database for the weather conditions in past years. The results will help you decide how hot, cold, wet, or windy it might be!

Date:

Astronomy

Jul. 13, 2012 Rise Set
Actual Time 5:40 AM CDT 8:58 PM CDT
Civil Twilight 5:04 AM CDT 9:33 PM CDT
Nautical Twilight 4:18 AM CDT 10:20 PM CDT
Astronomical Twilight 3:19 AM CDT 11:18 PM CDT
Moon 1:21 AM CDT (7/13) 4:26 PM CDT (7/13)
Length of Visible Light 16h 29m
Length of Day
15h 17m
Waning Crescent, 26% of the Moon is Illuminated
Jul 13
Waning Crescent
Jul 18
New
Jul 26
First Quarter
Aug 1
Full
Aug 9
Last Quarter

Hourly Weather History & Observations

Time (CDT) Temp. Heat Index Dew Point Humidity Pressure Visibility Wind Dir Wind Speed Gust Speed Precip Events Conditions
12:53 AM 77.0 °F - 64.0 °F 64% 29.94 in 10.0 mi South 5.8 mph - N/A   Mostly Cloudy
1:53 AM 75.9 °F - 63.0 °F 64% 29.93 in 10.0 mi SSE 8.1 mph - N/A   Overcast
2:53 AM 75.0 °F - 64.0 °F 69% 29.93 in 10.0 mi SSE 5.8 mph - N/A   Scattered Clouds
3:44 AM 75.2 °F - 64.4 °F 69% 29.94 in 10.0 mi SSE 9.2 mph - N/A Thunderstorm Overcast
3:53 AM 75.9 °F - 64.9 °F 69% 29.93 in 10.0 mi SSE 9.2 mph - N/A   Overcast
4:53 AM 75.9 °F - 64.9 °F 69% 29.91 in 10.0 mi SSE 6.9 mph - N/A   Partly Cloudy
5:53 AM 75.0 °F - 64.9 °F 71% 29.94 in 10.0 mi South 4.6 mph - N/A   Overcast
6:24 AM 75.2 °F - 64.4 °F 69% 29.96 in 10.0 mi East 3.5 mph - N/A Thunderstorm Partly Cloudy
6:39 AM 73.4 °F - 64.4 °F 73% 29.96 in 10.0 mi East 5.8 mph - N/A   Clear
6:53 AM 75.0 °F - 64.9 °F 71% 29.95 in 10.0 mi East 8.1 mph - N/A   Clear
7:53 AM 73.9 °F - 66.0 °F 76% 29.97 in 8.0 mi East 8.1 mph - N/A   Mostly Cloudy
8:53 AM 75.9 °F - 64.9 °F 69% 29.96 in 10.0 mi ESE 12.7 mph - 0.00 in   Mostly Cloudy
9:53 AM 77.0 °F - 64.9 °F 66% 29.96 in 10.0 mi SE 12.7 mph - N/A   Clear
10:53 AM 80.1 °F 82.1 °F 66.0 °F 62% 29.96 in 10.0 mi SE 13.8 mph - N/A   Partly Cloudy
11:53 AM 84.0 °F 87.0 °F 68.0 °F 58% 29.95 in 10.0 mi SSE 16.1 mph 21.9 mph N/A   Scattered Clouds
12:53 PM 84.9 °F 87.6 °F 66.9 °F 55% 29.95 in 10.0 mi South 12.7 mph 20.7 mph N/A   Mostly Cloudy
1:53 PM 87.1 °F 89.9 °F 66.9 °F 51% 29.94 in 10.0 mi SW 15.0 mph 18.4 mph N/A   Scattered Clouds
2:53 PM 89.1 °F 92.9 °F 68.0 °F 50% 29.91 in 10.0 mi South 10.4 mph 17.3 mph N/A   Scattered Clouds
3:53 PM 88.0 °F 89.6 °F 64.9 °F 46% 29.91 in 10.0 mi SW 9.2 mph 18.4 mph N/A   Partly Cloudy
4:53 PM 88.0 °F 91.4 °F 68.0 °F 51% 29.88 in 10.0 mi SW 10.4 mph - N/A   Scattered Clouds
5:01 PM 87.8 °F 91.4 °F 68.0 °F 52% 29.90 in 10.0 mi WSW 11.5 mph - N/A Thunderstorm Scattered Clouds
5:31 PM 75.2 °F - 62.6 °F 65% 29.92 in 9.0 mi North 12.7 mph - 0.00 in Rain , Thunderstorm Light Thunderstorms and Rain
5:53 PM 71.1 °F - 64.9 °F 81% 29.91 in 9.0 mi North 9.2 mph - 0.00 in Thunderstorm Scattered Clouds
6:20 PM 73.4 °F - 64.4 °F 73% 29.92 in 9.0 mi East 6.9 mph - N/A   Clear
6:53 PM 72.0 °F - 66.0 °F 81% 29.93 in 9.0 mi East 4.6 mph - 0.00 in Rain Light Rain
7:53 PM 72.0 °F - 64.9 °F 78% 29.93 in 10.0 mi NE 5.8 mph - N/A Thunderstorm Clear
8:14 PM 71.6 °F - 66.2 °F 83% 29.93 in 4.0 mi East 6.9 mph - 0.02 in Rain Light Rain
8:53 PM 70.0 °F - 64.9 °F 84% 29.95 in 10.0 mi SE 9.2 mph - 0.02 in   Partly Cloudy
9:53 PM 71.1 °F - 64.0 °F 78% 29.96 in 10.0 mi ESE 5.8 mph - N/A   Clear
10:51 PM 69.8 °F - 64.4 °F 83% 29.99 in 10.0 mi East 4.6 mph - N/A Thunderstorm Clear
10:53 PM 70.0 °F - 64.0 °F 81% 29.97 in 10.0 mi ENE 4.6 mph - N/A Thunderstorm Clear
11:53 PM 70.0 °F - 64.9 °F 84% 29.95 in 10.0 mi East 3.5 mph - 0.00 in   Mostly Cloudy